Location: City of Moscow
(46.7306°N, 116.9989°W)
Time: 02:45:06
(UTC+00:00)

USA 234 - Pass Details

Date: 09 March 2026
Orbit: 1102 x 1106 km, 123.0° (Epoch: 4 January)

Event Time Altitude Azimuth Distance (km) Brightness Sun altitude
Exits shadow 04:39:28 79° 89° (E) 1,128 3.1 -29.9°
Maximum altitude 04:39:52 83° 34° (NE) 1,116 3.1 -29.9°
Drops below altitude 10° 04:46:26 10° 308° (NW) 2,970 6.4 -30.9°
Sets 04:48:55 0° 308° (NW) 3,931 7.3 -31.3°
